Year,Month,Day,Hour,Minute,Value (Times are PST for temperature in C)
2016,08,07,00,00,15.80
2016,08,07,00,01,15.80
2016,08,07,00,02,15.80
2016,08,07,00,03,15.70
2016,08,07,00,04,15.70
2016,08,07,00,05,15.70
2016,08,07,00,06,15.70
2016,08,07,00,07,15.70
2016,08,07,00,08,15.70
2016,08,07,00,09,15.70
2016,08,07,00,10,15.70
2016,08,07,00,11,15.70
2016,08,07,00,12,15.70
2016,08,07,00,13,15.70
2016,08,07,00,14,15.60
2016,08,07,00,15,15.60
2016,08,07,00,16,15.60
2016,08,07,00,17,15.60
2016,08,07,00,18,15.60
2016,08,07,00,19,15.60
2016,08,07,00,20,15.50
2016,08,07,00,21,15.50
2016,08,07,00,22,15.50
2016,08,07,00,23,15.50
2016,08,07,00,24,15.40
2016,08,07,00,25,15.40
2016,08,07,00,26,15.40
2016,08,07,00,27,15.40
2016,08,07,00,28,15.40
2016,08,07,00,29,15.40
2016,08,07,00,30,15.30
2016,08,07,00,31,15.30
2016,08,07,00,32,15.30
2016,08,07,00,33,15.30
2016,08,07,00,34,15.30
2016,08,07,00,35,15.30
2016,08,07,00,36,15.20
2016,08,07,00,37,15.20
2016,08,07,00,38,15.20
2016,08,07,00,39,15.20
2016,08,07,00,40,15.20
2016,08,07,00,41,15.20
2016,08,07,00,42,15.20
2016,08,07,00,43,15.20
2016,08,07,00,44,15.10
2016,08,07,00,45,15.10
2016,08,07,00,46,15.10
2016,08,07,00,47,15.10
2016,08,07,00,48,15.10
2016,08,07,00,49,15.10
2016,08,07,00,50,15.10
2016,08,07,00,51,15.10
2016,08,07,00,52,15.00
2016,08,07,00,53,15.00
2016,08,07,00,54,15.00
2016,08,07,00,55,15.00
2016,08,07,00,56,15.00
2016,08,07,00,57,14.90
2016,08,07,00,58,14.90
2016,08,07,00,59,14.90
2016,08,07,01,00,14.90
2016,08,07,01,01,14.90
2016,08,07,01,02,14.90
2016,08,07,01,03,14.90
2016,08,07,01,04,14.90
2016,08,07,01,05,14.90
2016,08,07,01,06,14.90
2016,08,07,01,07,14.80
2016,08,07,01,08,14.80
2016,08,07,01,09,14.80
2016,08,07,01,10,14.80
2016,08,07,01,11,14.80
2016,08,07,01,12,14.80
2016,08,07,01,13,14.80
2016,08,07,01,14,14.70
2016,08,07,01,15,14.70
2016,08,07,01,16,14.70
2016,08,07,01,17,14.70
2016,08,07,01,18,14.70
2016,08,07,01,19,14.60
2016,08,07,01,20,14.60
2016,08,07,01,21,14.60
2016,08,07,01,22,14.60
2016,08,07,01,23,14.50
2016,08,07,01,24,14.50
2016,08,07,01,25,14.50
2016,08,07,01,26,14.50
2016,08,07,01,27,14.50
2016,08,07,01,28,14.40
2016,08,07,01,29,14.40
2016,08,07,01,30,14.40
2016,08,07,01,31,14.40
2016,08,07,01,32,14.40
2016,08,07,01,33,14.40
2016,08,07,01,34,14.40
2016,08,07,01,35,14.40
2016,08,07,01,36,14.40
2016,08,07,01,37,14.30
2016,08,07,01,38,14.30
2016,08,07,01,39,14.30
2016,08,07,01,40,14.30
2016,08,07,01,41,14.30
2016,08,07,01,42,14.30
2016,08,07,01,43,14.30
2016,08,07,01,44,14.30
2016,08,07,01,45,14.20
2016,08,07,01,46,14.20
2016,08,07,01,47,14.20
2016,08,07,01,48,14.20
2016,08,07,01,49,14.20
2016,08,07,01,50,14.20
2016,08,07,01,51,14.20
2016,08,07,01,52,14.20
2016,08,07,01,53,14.20
2016,08,07,01,54,14.20
2016,08,07,01,55,14.20
2016,08,07,01,56,14.10
2016,08,07,01,57,14.10
2016,08,07,01,58,14.10
2016,08,07,01,59,14.10
2016,08,07,02,00,14.10
2016,08,07,02,01,14.10
2016,08,07,02,02,14.10
2016,08,07,02,03,14.20
2016,08,07,02,04,14.20
2016,08,07,02,05,14.20
2016,08,07,02,06,14.20
2016,08,07,02,07,14.20
2016,08,07,02,08,14.20
2016,08,07,02,09,14.20
2016,08,07,02,10,14.20
2016,08,07,02,11,14.20
2016,08,07,02,12,14.20
2016,08,07,02,13,14.20
2016,08,07,02,14,14.20
2016,08,07,02,15,14.20
2016,08,07,02,16,14.10
2016,08,07,02,17,14.10
2016,08,07,02,18,14.10
2016,08,07,02,19,14.10
2016,08,07,02,20,14.10
2016,08,07,02,21,14.10
2016,08,07,02,22,14.00
2016,08,07,02,23,14.00
2016,08,07,02,24,14.00
2016,08,07,02,25,14.00
2016,08,07,02,26,13.90
2016,08,07,02,27,13.90
2016,08,07,02,28,13.90
2016,08,07,02,29,13.90
2016,08,07,02,30,13.90
2016,08,07,02,31,13.90
2016,08,07,02,32,13.90
2016,08,07,02,33,13.90
2016,08,07,02,34,13.90
2016,08,07,02,35,13.90
2016,08,07,02,36,13.90
2016,08,07,02,37,13.90
2016,08,07,02,38,13.90
2016,08,07,02,39,13.90
2016,08,07,02,40,13.90
2016,08,07,02,41,13.90
2016,08,07,02,42,13.90
2016,08,07,02,43,13.90
2016,08,07,02,44,13.80
2016,08,07,02,45,13.80
2016,08,07,02,46,13.80
2016,08,07,02,47,13.80
2016,08,07,02,48,13.80
2016,08,07,02,49,13.90
2016,08,07,02,50,13.90
2016,08,07,02,51,13.90
2016,08,07,02,52,13.90
2016,08,07,02,53,13.90
2016,08,07,02,54,13.90
2016,08,07,02,55,13.90
2016,08,07,02,56,13.90
2016,08,07,02,57,13.90
2016,08,07,02,58,13.90
2016,08,07,02,59,13.90
2016,08,07,03,00,13.90
2016,08,07,03,01,13.90
2016,08,07,03,02,13.90
2016,08,07,03,03,13.90
2016,08,07,03,04,13.90
2016,08,07,03,05,13.90
2016,08,07,03,06,13.90
2016,08,07,03,07,14.00
2016,08,07,03,08,14.00
2016,08,07,03,09,14.00
2016,08,07,03,10,14.00
2016,08,07,03,11,14.00
2016,08,07,03,12,14.00
2016,08,07,03,13,14.00
2016,08,07,03,14,14.00
2016,08,07,03,15,14.00
2016,08,07,03,16,14.00
2016,08,07,03,17,14.00
2016,08,07,03,18,14.00
2016,08,07,03,19,14.00
2016,08,07,03,20,14.00
2016,08,07,03,21,14.00
2016,08,07,03,22,14.00
2016,08,07,03,23,14.00
2016,08,07,03,24,14.00
2016,08,07,03,25,14.00
2016,08,07,03,26,14.10
2016,08,07,03,27,14.10
2016,08,07,03,28,14.10
2016,08,07,03,29,14.10
2016,08,07,03,30,14.10
2016,08,07,03,31,14.00
2016,08,07,03,32,14.00
2016,08,07,03,33,14.00
2016,08,07,03,34,14.00
2016,08,07,03,35,14.00
2016,08,07,03,36,13.90
2016,08,07,03,37,13.90
2016,08,07,03,38,13.90
2016,08,07,03,39,13.90
2016,08,07,03,40,13.90
2016,08,07,03,41,13.90
2016,08,07,03,42,13.90
2016,08,07,03,43,13.90
2016,08,07,03,44,13.90
2016,08,07,03,45,13.90
2016,08,07,03,46,13.90
2016,08,07,03,47,13.90
2016,08,07,03,48,13.90
2016,08,07,03,49,13.90
2016,08,07,03,50,14.00
2016,08,07,03,51,14.00
2016,08,07,03,52,14.00
2016,08,07,03,53,14.00
2016,08,07,03,54,14.00
2016,08,07,03,55,14.00
2016,08,07,03,56,14.00
2016,08,07,03,57,14.00
2016,08,07,03,58,14.00
2016,08,07,03,59,14.00
2016,08,07,04,00,14.00
2016,08,07,04,01,14.00
2016,08,07,04,02,14.00
2016,08,07,04,03,14.00
2016,08,07,04,04,14.00
2016,08,07,04,05,14.00
2016,08,07,04,06,14.00
2016,08,07,04,07,14.00
2016,08,07,04,08,14.00
2016,08,07,04,09,14.00
2016,08,07,04,10,14.00
2016,08,07,04,11,13.90
2016,08,07,04,12,13.90
2016,08,07,04,13,13.90
2016,08,07,04,14,13.90
2016,08,07,04,15,14.00
2016,08,07,04,16,14.00
2016,08,07,04,17,14.00
2016,08,07,04,18,14.00
2016,08,07,04,19,14.00
2016,08,07,04,20,14.00
2016,08,07,04,21,14.00
2016,08,07,04,22,14.00
2016,08,07,04,23,14.00
2016,08,07,04,24,14.00
2016,08,07,04,25,14.00
2016,08,07,04,26,14.00
2016,08,07,04,27,14.00
2016,08,07,04,28,14.00
2016,08,07,04,29,14.00
2016,08,07,04,30,14.00
2016,08,07,04,31,14.00
2016,08,07,04,32,14.00
2016,08,07,04,33,14.00
2016,08,07,04,34,14.00
2016,08,07,04,35,14.00
2016,08,07,04,36,13.90
2016,08,07,04,37,13.90
2016,08,07,04,38,13.90
2016,08,07,04,39,13.90
2016,08,07,04,40,13.90
2016,08,07,04,41,13.90
2016,08,07,04,42,13.90
2016,08,07,04,43,13.90
2016,08,07,04,44,13.90
2016,08,07,04,45,13.90
2016,08,07,04,46,13.90
2016,08,07,04,47,13.80
2016,08,07,04,48,13.80
2016,08,07,04,49,13.80
2016,08,07,04,50,13.80
2016,08,07,04,51,13.80
2016,08,07,04,52,13.80
2016,08,07,04,53,13.80
2016,08,07,04,54,13.80
2016,08,07,04,55,13.80
2016,08,07,04,56,13.80
2016,08,07,04,57,13.80
2016,08,07,04,58,13.80
2016,08,07,04,59,13.80
2016,08,07,05,00,13.80
2016,08,07,05,01,13.80
2016,08,07,05,02,13.80
2016,08,07,05,03,13.80
2016,08,07,05,04,13.80
2016,08,07,05,05,13.80
2016,08,07,05,06,13.80
2016,08,07,05,07,13.80
2016,08,07,05,08,13.80
2016,08,07,05,09,13.80
2016,08,07,05,10,13.80
2016,08,07,05,11,13.80
2016,08,07,05,12,13.80
2016,08,07,05,13,13.80
2016,08,07,05,14,13.80
2016,08,07,05,15,13.80
2016,08,07,05,16,13.80
2016,08,07,05,17,13.80
2016,08,07,05,18,13.80
2016,08,07,05,19,13.70
2016,08,07,05,20,13.70
2016,08,07,05,21,13.70
2016,08,07,05,22,13.70
2016,08,07,05,23,13.70
2016,08,07,05,24,13.70
2016,08,07,05,25,13.70
2016,08,07,05,26,13.70
2016,08,07,05,27,13.70
2016,08,07,05,28,13.70
2016,08,07,05,29,13.70
2016,08,07,05,30,13.70
2016,08,07,05,31,13.70
2016,08,07,05,32,13.70
2016,08,07,05,33,13.70
2016,08,07,05,34,13.70
2016,08,07,05,35,13.70
2016,08,07,05,36,13.70
2016,08,07,05,37,13.70
2016,08,07,05,38,13.70
2016,08,07,05,39,13.70
2016,08,07,05,40,13.70
2016,08,07,05,41,13.70
2016,08,07,05,42,13.70
2016,08,07,05,43,13.70
2016,08,07,05,44,13.70
2016,08,07,05,45,13.80
2016,08,07,05,46,13.80
2016,08,07,05,47,13.80
2016,08,07,05,48,13.80
2016,08,07,05,49,13.80
2016,08,07,05,50,13.80
2016,08,07,05,51,13.80
2016,08,07,05,52,13.80
2016,08,07,05,53,13.80
2016,08,07,05,54,13.80
2016,08,07,05,55,13.90
2016,08,07,05,56,13.90
2016,08,07,05,57,13.90
2016,08,07,05,58,13.90
2016,08,07,05,59,13.90
2016,08,07,06,00,13.90
2016,08,07,06,01,13.90
2016,08,07,06,02,13.90
2016,08,07,06,03,13.80
2016,08,07,06,04,13.80
2016,08,07,06,05,13.90
2016,08,07,06,06,13.90
2016,08,07,06,07,13.90
2016,08,07,06,08,13.90
2016,08,07,06,09,13.90
2016,08,07,06,10,13.90
2016,08,07,06,11,13.90
2016,08,07,06,12,13.90
2016,08,07,06,13,13.90
2016,08,07,06,14,13.90
2016,08,07,06,15,13.90
2016,08,07,06,16,13.90
2016,08,07,06,17,13.90
2016,08,07,06,18,13.90
2016,08,07,06,19,14.00
2016,08,07,06,20,14.00
2016,08,07,06,21,14.00
2016,08,07,06,22,14.00
2016,08,07,06,23,14.00
2016,08,07,06,24,14.00
2016,08,07,06,25,14.00
2016,08,07,06,26,14.00
2016,08,07,06,27,14.00
2016,08,07,06,28,13.90
2016,08,07,06,29,13.90
2016,08,07,06,30,13.90
2016,08,07,06,31,13.90
2016,08,07,06,32,13.90
2016,08,07,06,33,13.90
2016,08,07,06,34,13.90
2016,08,07,06,35,13.90
2016,08,07,06,36,13.80
2016,08,07,06,37,13.80
2016,08,07,06,38,13.80
2016,08,07,06,39,13.80
2016,08,07,06,40,13.80
2016,08,07,06,41,13.80
2016,08,07,06,42,13.80
2016,08,07,06,43,13.80
2016,08,07,06,44,13.80
2016,08,07,06,45,13.90
2016,08,07,06,46,13.90
2016,08,07,06,47,13.90
2016,08,07,06,48,13.90
2016,08,07,06,49,13.90
2016,08,07,06,50,13.90
2016,08,07,06,51,13.90
2016,08,07,06,52,13.90
2016,08,07,06,53,13.90
2016,08,07,06,54,13.90
2016,08,07,06,55,14.00
2016,08,07,06,56,14.00
2016,08,07,06,57,14.00
2016,08,07,06,58,14.00
2016,08,07,06,59,14.00
2016,08,07,07,00,14.00
2016,08,07,07,01,14.00
2016,08,07,07,02,14.00
2016,08,07,07,03,14.00
2016,08,07,07,04,14.10
2016,08,07,07,05,14.10
2016,08,07,07,06,14.10
2016,08,07,07,07,14.10
2016,08,07,07,08,14.10
2016,08,07,07,09,14.10
2016,08,07,07,10,14.10
2016,08,07,07,11,14.10
2016,08,07,07,12,14.20
2016,08,07,07,13,14.20
2016,08,07,07,14,14.20
2016,08,07,07,15,14.20
2016,08,07,07,16,14.20
2016,08,07,07,17,14.20
2016,08,07,07,18,14.30
2016,08,07,07,19,14.30
2016,08,07,07,20,14.30
2016,08,07,07,21,14.30
2016,08,07,07,22,14.40
2016,08,07,07,23,14.40
2016,08,07,07,24,14.40
2016,08,07,07,25,14.40
2016,08,07,07,26,14.50
2016,08,07,07,27,14.50
2016,08,07,07,28,14.60
2016,08,07,07,29,14.60
2016,08,07,07,30,14.70
2016,08,07,07,31,14.70
2016,08,07,07,32,14.80
2016,08,07,07,33,14.80
2016,08,07,07,34,14.80
2016,08,07,07,35,14.90
2016,08,07,07,36,14.90
2016,08,07,07,37,15.00
2016,08,07,07,38,15.00
2016,08,07,07,39,15.10
2016,08,07,07,40,15.10
2016,08,07,07,41,15.20
2016,08,07,07,42,15.20
2016,08,07,07,43,15.30
2016,08,07,07,44,15.30
2016,08,07,07,45,15.40
2016,08,07,07,46,15.40
2016,08,07,07,47,15.50
2016,08,07,07,48,15.60
2016,08,07,07,49,15.60
2016,08,07,07,50,15.70
2016,08,07,07,51,15.70
2016,08,07,07,52,15.70
2016,08,07,07,53,15.80
2016,08,07,07,54,15.80
2016,08,07,07,55,15.90
2016,08,07,07,56,15.90
2016,08,07,07,57,16.00
2016,08,07,07,58,16.00
2016,08,07,07,59,16.10
2016,08,07,08,00,16.10
2016,08,07,08,01,16.10
2016,08,07,08,02,16.20
2016,08,07,08,03,16.20
2016,08,07,08,04,16.20
2016,08,07,08,05,16.30
2016,08,07,08,06,16.30
2016,08,07,08,07,16.30
2016,08,07,08,08,16.30
2016,08,07,08,09,16.30
2016,08,07,08,10,16.40
2016,08,07,08,11,16.40
2016,08,07,08,12,16.50
2016,08,07,08,13,16.50
2016,08,07,08,14,16.50
2016,08,07,08,15,16.60
2016,08,07,08,16,16.60
2016,08,07,08,17,16.60
2016,08,07,08,18,16.60
2016,08,07,08,19,16.60
2016,08,07,08,20,16.70
2016,08,07,08,21,16.70
2016,08,07,08,22,16.70
2016,08,07,08,23,16.70
2016,08,07,08,24,16.70
2016,08,07,08,25,16.80
2016,08,07,08,26,16.80
2016,08,07,08,27,16.80
2016,08,07,08,28,16.80
2016,08,07,08,29,16.90
2016,08,07,08,30,16.90
2016,08,07,08,31,16.90
2016,08,07,08,32,16.90
2016,08,07,08,33,16.80
2016,08,07,08,34,16.70
2016,08,07,08,35,16.50
2016,08,07,08,36,16.50
2016,08,07,08,37,16.40
2016,08,07,08,38,16.30
2016,08,07,08,39,16.30
2016,08,07,08,40,16.20
2016,08,07,08,41,16.10
2016,08,07,08,42,16.10
2016,08,07,08,43,16.00
2016,08,07,08,44,16.00
2016,08,07,08,45,16.00
2016,08,07,08,46,16.00
2016,08,07,08,47,16.00
2016,08,07,08,48,16.00
2016,08,07,08,49,16.00
2016,08,07,08,50,16.00
2016,08,07,08,51,16.00
2016,08,07,08,52,16.00
2016,08,07,08,53,16.10
2016,08,07,08,54,16.10
2016,08,07,08,55,16.10
2016,08,07,08,56,16.10
2016,08,07,08,57,16.10
2016,08,07,08,58,16.10
2016,08,07,08,59,16.10
2016,08,07,09,00,16.20
2016,08,07,09,01,16.20
2016,08,07,09,02,16.20
2016,08,07,09,03,16.20
2016,08,07,09,04,16.30
2016,08,07,09,05,16.30
2016,08,07,09,06,16.30
2016,08,07,09,07,16.30
2016,08,07,09,08,16.30
2016,08,07,09,09,16.40
2016,08,07,09,10,16.40
2016,08,07,09,11,16.40
2016,08,07,09,12,16.40
2016,08,07,09,13,16.40
2016,08,07,09,14,16.50
2016,08,07,09,15,16.50
2016,08,07,09,16,16.50
2016,08,07,09,17,16.50
2016,08,07,09,18,16.60
2016,08,07,09,19,16.60
2016,08,07,09,20,16.60
2016,08,07,09,21,16.60
2016,08,07,09,22,16.70
2016,08,07,09,23,16.70
2016,08,07,09,24,16.70
2016,08,07,09,25,16.70
2016,08,07,09,26,16.70
2016,08,07,09,27,16.70
2016,08,07,09,28,16.70
2016,08,07,09,29,16.70
2016,08,07,09,30,16.70
2016,08,07,09,31,16.70
2016,08,07,09,32,16.70
2016,08,07,09,33,16.70
2016,08,07,09,34,16.70
2016,08,07,09,35,16.70
2016,08,07,09,36,16.70
2016,08,07,09,37,16.70
2016,08,07,09,38,16.70
2016,08,07,09,39,16.70
2016,08,07,09,40,16.70
2016,08,07,09,41,16.70
2016,08,07,09,42,16.70
2016,08,07,09,43,16.70
2016,08,07,09,44,16.70
2016,08,07,09,45,16.80
2016,08,07,09,46,16.80
2016,08,07,09,47,16.80
2016,08,07,09,48,16.80
2016,08,07,09,49,16.80
2016,08,07,09,50,16.80
2016,08,07,09,51,16.80
2016,08,07,09,52,16.80
2016,08,07,09,53,16.80
2016,08,07,09,54,16.80
2016,08,07,09,55,16.80
2016,08,07,09,56,16.80
2016,08,07,09,57,16.70
2016,08,07,09,58,16.70
2016,08,07,09,59,16.70
2016,08,07,10,00,16.70
2016,08,07,10,01,16.60
2016,08,07,10,02,16.60
2016,08,07,10,03,16.50
2016,08,07,10,04,16.50
2016,08,07,10,05,16.50
2016,08,07,10,06,16.40
2016,08,07,10,07,16.40
2016,08,07,10,08,16.40
2016,08,07,10,09,16.40
2016,08,07,10,10,16.30
2016,08,07,10,11,16.30
2016,08,07,10,12,16.30
2016,08,07,10,13,16.20
2016,08,07,10,14,16.20
2016,08,07,10,15,16.20
2016,08,07,10,16,16.10
2016,08,07,10,17,16.10
2016,08,07,10,18,16.00
2016,08,07,10,19,16.00
2016,08,07,10,20,16.00
2016,08,07,10,21,15.90
2016,08,07,10,22,15.90
2016,08,07,10,23,15.90
2016,08,07,10,24,15.90
2016,08,07,10,25,15.90
2016,08,07,10,26,15.90
2016,08,07,10,27,15.90
2016,08,07,10,28,15.90
2016,08,07,10,29,15.90
2016,08,07,10,30,15.90
2016,08,07,10,31,15.90
2016,08,07,10,32,15.90
2016,08,07,10,33,15.90
2016,08,07,10,34,15.90
2016,08,07,10,35,15.90
2016,08,07,10,36,16.00
2016,08,07,10,37,16.00
2016,08,07,10,38,16.00
2016,08,07,10,39,16.00
2016,08,07,10,40,16.10
2016,08,07,10,41,16.10
2016,08,07,10,42,16.10
2016,08,07,10,43,16.10
2016,08,07,10,44,16.10
2016,08,07,10,45,16.10
2016,08,07,10,46,16.10
2016,08,07,10,47,16.10
2016,08,07,10,48,16.10
2016,08,07,10,49,16.10
2016,08,07,10,50,16.10
2016,08,07,10,51,16.10
2016,08,07,10,52,16.20
2016,08,07,10,53,16.20
2016,08,07,10,54,16.20
2016,08,07,10,55,16.20
2016,08,07,10,56,16.20
2016,08,07,10,57,16.30
2016,08,07,10,58,16.30
2016,08,07,10,59,16.30
2016,08,07,11,00,16.30
2016,08,07,11,01,16.30
2016,08,07,11,02,16.30
2016,08,07,11,03,16.30
2016,08,07,11,04,16.30
2016,08,07,11,05,16.30
2016,08,07,11,06,16.20
2016,08,07,11,07,16.20
2016,08,07,11,08,16.20
2016,08,07,11,09,16.20
2016,08,07,11,10,16.20
2016,08,07,11,11,16.20
2016,08,07,11,12,16.10
2016,08,07,11,13,16.10
2016,08,07,11,14,16.10
2016,08,07,11,15,16.10
2016,08,07,11,16,16.00
2016,08,07,11,17,16.00
2016,08,07,11,18,16.00
2016,08,07,11,19,16.00
2016,08,07,11,20,15.90
2016,08,07,11,21,15.90
2016,08,07,11,22,15.90
2016,08,07,11,23,15.90
2016,08,07,11,24,15.90
2016,08,07,11,25,15.90
2016,08,07,11,26,15.90
2016,08,07,11,27,15.90
2016,08,07,11,28,15.90
2016,08,07,11,29,15.80
2016,08,07,11,30,15.80
2016,08,07,11,31,15.80
2016,08,07,11,32,15.80
2016,08,07,11,33,15.80
2016,08,07,11,34,15.80
2016,08,07,11,35,15.90
2016,08,07,11,36,15.90
2016,08,07,11,37,15.90
2016,08,07,11,38,15.90
2016,08,07,11,39,16.00
2016,08,07,11,40,16.00
2016,08,07,11,41,16.10
2016,08,07,11,42,16.10
2016,08,07,11,43,16.20
2016,08,07,11,44,16.20
2016,08,07,11,45,16.30
2016,08,07,11,46,16.30
2016,08,07,11,47,16.30
2016,08,07,11,48,16.30
2016,08,07,11,49,16.30
2016,08,07,11,50,16.30
2016,08,07,11,51,16.30
2016,08,07,11,52,16.30
2016,08,07,11,53,16.30
2016,08,07,11,54,16.40
2016,08,07,11,55,16.30
2016,08,07,11,56,16.40
2016,08,07,11,57,16.40
2016,08,07,11,58,16.30
2016,08,07,11,59,16.30
2016,08,07,12,00,16.30
2016,08,07,12,01,16.30
2016,08,07,12,02,16.30
2016,08,07,12,03,16.30
2016,08,07,12,04,16.30
2016,08,07,12,05,16.30
2016,08,07,12,06,16.40
2016,08,07,12,07,16.40
2016,08,07,12,08,16.40
2016,08,07,12,09,16.40
2016,08,07,12,10,16.30
2016,08,07,12,11,16.30
2016,08,07,12,12,16.20
2016,08,07,12,13,16.20
2016,08,07,12,14,16.20
2016,08,07,12,15,16.10
2016,08,07,12,16,16.10
2016,08,07,12,17,16.10
2016,08,07,12,18,16.10
2016,08,07,12,19,16.10
2016,08,07,12,20,16.20
2016,08,07,12,21,16.20
2016,08,07,12,22,16.10
2016,08,07,12,23,16.10
2016,08,07,12,24,16.10
2016,08,07,12,25,16.10
2016,08,07,12,26,16.10
2016,08,07,12,27,16.10
2016,08,07,12,28,16.10
2016,08,07,12,29,16.10
2016,08,07,12,30,16.10
2016,08,07,12,31,16.20
2016,08,07,12,32,16.20
2016,08,07,12,33,16.10
2016,08,07,12,34,16.10
2016,08,07,12,35,16.10
2016,08,07,12,36,16.10
2016,08,07,12,37,16.20
2016,08,07,12,38,16.20
2016,08,07,12,39,16.20
2016,08,07,12,40,16.20
2016,08,07,12,41,16.30
2016,08,07,12,42,16.30
2016,08,07,12,43,16.30
2016,08,07,12,44,16.40
2016,08,07,12,45,16.40
2016,08,07,12,46,16.40
2016,08,07,12,47,16.40
2016,08,07,12,48,16.40
2016,08,07,12,49,16.40
2016,08,07,12,50,16.50
2016,08,07,12,51,16.50
2016,08,07,12,52,16.50
2016,08,07,12,53,16.60
2016,08,07,12,54,16.60
2016,08,07,12,55,16.60
2016,08,07,12,56,16.70
2016,08,07,12,57,16.80
2016,08,07,12,58,16.80
2016,08,07,12,59,16.90
2016,08,07,13,00,17.00
2016,08,07,13,01,17.10
2016,08,07,13,02,17.10
2016,08,07,13,03,17.10
2016,08,07,13,04,17.10
2016,08,07,13,05,17.10
2016,08,07,13,06,17.10
2016,08,07,13,07,17.20
2016,08,07,13,08,17.30
2016,08,07,13,09,17.30
2016,08,07,13,10,17.40
2016,08,07,13,11,17.50
2016,08,07,13,12,17.60
2016,08,07,13,13,17.70
2016,08,07,13,14,17.70
2016,08,07,13,15,17.70
2016,08,07,13,16,17.80
2016,08,07,13,17,17.80
2016,08,07,13,18,17.90
2016,08,07,13,19,17.90
2016,08,07,13,20,18.00
2016,08,07,13,21,18.00
2016,08,07,13,22,18.10
2016,08,07,13,23,18.10
2016,08,07,13,24,18.20
2016,08,07,13,25,18.30
2016,08,07,13,26,18.30
2016,08,07,13,27,18.40
2016,08,07,13,28,18.50
2016,08,07,13,29,18.50
2016,08,07,13,30,18.60
2016,08,07,13,31,18.60
2016,08,07,13,32,18.60
2016,08,07,13,33,18.60
2016,08,07,13,34,18.50
2016,08,07,13,35,18.50
2016,08,07,13,36,18.40
2016,08,07,13,37,18.40
2016,08,07,13,38,18.40
2016,08,07,13,39,18.40
2016,08,07,13,40,18.30
2016,08,07,13,41,18.30
2016,08,07,13,42,18.20
2016,08,07,13,43,18.10
2016,08,07,13,44,18.10
2016,08,07,13,45,18.10
2016,08,07,13,46,18.10
2016,08,07,13,47,18.10
2016,08,07,13,48,18.00
2016,08,07,13,49,18.00
2016,08,07,13,50,17.90
2016,08,07,13,51,17.90
2016,08,07,13,52,17.90
2016,08,07,13,53,17.80
2016,08,07,13,54,17.80
2016,08,07,13,55,17.80
2016,08,07,13,56,17.70
2016,08,07,13,57,17.70
2016,08,07,13,58,17.70
2016,08,07,13,59,17.70
2016,08,07,14,00,17.70
2016,08,07,14,01,17.60
2016,08,07,14,02,17.60
2016,08,07,14,03,17.50
2016,08,07,14,04,17.50
2016,08,07,14,05,17.40
2016,08,07,14,06,17.40
2016,08,07,14,07,17.30
2016,08,07,14,08,17.30
2016,08,07,14,09,17.30
2016,08,07,14,10,17.30
2016,08,07,14,11,17.30
2016,08,07,14,12,17.30
2016,08,07,14,13,17.30
2016,08,07,14,14,17.30
2016,08,07,14,15,17.50
2016,08,07,14,16,17.60
2016,08,07,14,17,17.60
2016,08,07,14,18,17.70
2016,08,07,14,19,17.70
2016,08,07,14,20,17.60
2016,08,07,14,21,17.60
2016,08,07,14,22,17.70
2016,08,07,14,23,17.70
2016,08,07,14,24,17.70
2016,08,07,14,25,17.70
2016,08,07,14,26,17.70
2016,08,07,14,27,17.70
2016,08,07,14,28,17.80
2016,08,07,14,29,17.90
2016,08,07,14,30,18.00
2016,08,07,14,31,18.10
2016,08,07,14,32,18.20
2016,08,07,14,33,18.30
2016,08,07,14,34,18.30
2016,08,07,14,35,18.30
2016,08,07,14,36,18.30
2016,08,07,14,37,18.30
2016,08,07,14,38,18.20
2016,08,07,14,39,18.30
2016,08,07,14,40,18.30
2016,08,07,14,41,18.30
2016,08,07,14,42,18.30
2016,08,07,14,43,18.30
2016,08,07,14,44,18.20
2016,08,07,14,45,18.20
2016,08,07,14,46,18.20
2016,08,07,14,47,18.10
2016,08,07,14,48,18.10
2016,08,07,14,49,18.00
2016,08,07,14,50,17.90
2016,08,07,14,51,17.90
2016,08,07,14,52,17.90
2016,08,07,14,53,17.90
2016,08,07,14,54,17.90
2016,08,07,14,55,17.90
2016,08,07,14,56,17.90
2016,08,07,14,57,17.80
2016,08,07,14,58,17.80
2016,08,07,14,59,17.80
2016,08,07,15,00,17.80
2016,08,07,15,01,17.90
2016,08,07,15,02,17.90
2016,08,07,15,03,17.90
2016,08,07,15,04,17.90
2016,08,07,15,05,17.90
2016,08,07,15,06,17.90
2016,08,07,15,07,17.90
2016,08,07,15,08,17.90
2016,08,07,15,09,17.90
2016,08,07,15,10,17.90
2016,08,07,15,11,18.00
2016,08,07,15,12,18.10
2016,08,07,15,13,18.20
2016,08,07,15,14,18.20
2016,08,07,15,15,18.20
2016,08,07,15,16,18.20
2016,08,07,15,17,18.20
2016,08,07,15,18,18.20
2016,08,07,15,19,18.30
2016,08,07,15,20,18.30
2016,08,07,15,21,18.30
2016,08,07,15,22,18.30
2016,08,07,15,23,18.20
2016,08,07,15,24,18.20
2016,08,07,15,25,18.10
2016,08,07,15,26,18.10
2016,08,07,15,27,18.10
2016,08,07,15,28,18.10
2016,08,07,15,29,18.10
2016,08,07,15,30,18.20
2016,08,07,15,31,18.30
2016,08,07,15,32,18.40
2016,08,07,15,33,18.50
2016,08,07,15,34,18.50
2016,08,07,15,35,18.50
2016,08,07,15,36,18.60
2016,08,07,15,37,18.60
2016,08,07,15,38,18.70
2016,08,07,15,39,18.70
2016,08,07,15,40,18.60
2016,08,07,15,41,18.60
2016,08,07,15,42,18.50
2016,08,07,15,43,18.50
2016,08,07,15,44,18.50
2016,08,07,15,45,18.60
2016,08,07,15,46,18.70
2016,08,07,15,47,18.70
2016,08,07,15,48,18.80
2016,08,07,15,49,18.80
2016,08,07,15,50,18.70
2016,08,07,15,51,18.70
2016,08,07,15,52,18.70
2016,08,07,15,53,18.70
2016,08,07,15,54,18.80
2016,08,07,15,55,18.80
2016,08,07,15,56,18.80
2016,08,07,15,57,18.90
2016,08,07,15,58,19.00
2016,08,07,15,59,19.00
2016,08,07,16,00,19.00
2016,08,07,16,01,18.90
2016,08,07,16,02,18.90
2016,08,07,16,03,18.90
2016,08,07,16,04,18.90
2016,08,07,16,05,19.00
2016,08,07,16,06,19.00
2016,08,07,16,07,19.00
2016,08,07,16,08,19.00
2016,08,07,16,09,18.90
2016,08,07,16,10,18.80
2016,08,07,16,11,18.80
2016,08,07,16,12,18.80
2016,08,07,16,13,18.70
2016,08,07,16,14,18.80
2016,08,07,16,15,18.80
2016,08,07,16,16,18.80
2016,08,07,16,17,18.80
2016,08,07,16,18,18.80
2016,08,07,16,19,18.90
2016,08,07,16,20,18.90
2016,08,07,16,21,18.90
2016,08,07,16,22,18.90
2016,08,07,16,23,18.90
2016,08,07,16,24,18.90
2016,08,07,16,25,18.90
2016,08,07,16,26,18.80
2016,08,07,16,27,18.80
2016,08,07,16,28,18.70
2016,08,07,16,29,18.60
2016,08,07,16,30,18.60
2016,08,07,16,31,18.60
2016,08,07,16,32,18.50
2016,08,07,16,33,18.50
2016,08,07,16,34,18.50
2016,08,07,16,35,18.40
2016,08,07,16,36,18.40
2016,08,07,16,37,18.30
2016,08,07,16,38,18.30
2016,08,07,16,39,18.30
2016,08,07,16,40,18.30
2016,08,07,16,41,18.30
2016,08,07,16,42,18.30
2016,08,07,16,43,18.20
2016,08,07,16,44,18.10
2016,08,07,16,45,18.10
2016,08,07,16,46,18.00
2016,08,07,16,47,18.00
2016,08,07,16,48,18.00
2016,08,07,16,49,18.00
2016,08,07,16,50,18.00
2016,08,07,16,51,18.00
2016,08,07,16,52,18.00
2016,08,07,16,53,18.10
2016,08,07,16,54,18.10
2016,08,07,16,55,18.10
2016,08,07,16,56,18.10
2016,08,07,16,57,18.10
2016,08,07,16,58,18.20
2016,08,07,16,59,18.20
2016,08,07,17,00,18.10
2016,08,07,17,01,18.10
2016,08,07,17,02,18.10
2016,08,07,17,03,18.20
2016,08,07,17,04,18.20
2016,08,07,17,05,18.20
2016,08,07,17,06,18.20
2016,08,07,17,07,18.20
2016,08,07,17,08,18.10
2016,08,07,17,09,18.00
2016,08,07,17,10,17.90
2016,08,07,17,11,17.80
2016,08,07,17,12,17.80
2016,08,07,17,13,17.70
2016,08,07,17,14,17.70
2016,08,07,17,15,17.70
2016,08,07,17,16,17.70
2016,08,07,17,17,17.60
2016,08,07,17,18,17.60
2016,08,07,17,19,17.60